Powrót do katalogu

STARLINK-37404

AktywnyŁącznośćSSO
NORAD 68786·PAYLOAD·🇺🇸 United States

Wystrzelony Apr 19, 2026 z Vandenberg Space Force Base

Loading…

Następne Przeloty (najbliższe 24 godziny)

TLE

ŚwieżeSource: CelesTrak SupGP

Epoka: Sep 14, 2026, 22:43 UTC

1 68786C 26086W   26257.94701389  .00035972  00000+0  11168-2 0  2571
2 68786  97.2844 293.5133 0001064 104.4756  43.2081 15.33416480    19

Śledź STARLINK-37404 w czasie rzeczywistym z AllMySat

Download on the App Store